Location: Saint-Maurice-d�Ard�che
(44.5216°N, 4.4002°E)
Time: 11:42:32
(UTC+00:00)

DMSP B5D2-2 - Pass Details

Date: 30 March 2020
Orbit: 791 x 805 km, 98.3° (Epoch: 04 June)

Event Time Altitude Azimuth Distance (km) Brightness Sun altitude
Rises 20:12:03 0° 11° (N) 3,300 7.5 -21.7°
Reaches altitude 10° 20:14:24 10° 9° (N) 2,367 6.8 -22.1°
Maximum altitude 20:19:36 72° 287° (WNW) 836 4.2 -22.9°
Drops below altitude 10° 20:24:47 10° 203° (SSW) 2,357 6.4 -23.7°
Sets 20:27:06 0° 202° (SSW) 3,284 7.2 -24.0°
